Back to catalog

SL-8 DEB

AliveLEO
NORAD 21252·DEBRIS·🇷🇺 Russia

Launched Feb 12, 1991 from Plesetsk Cosmodrome

Loading…

Next Passes (next 24 hours)

TLE

FreshSource: Space-Track

Epoch: Sep 14, 2026, 08:00 UTC

1 21252U 91009BK  26257.33398640 -.00000023  00000-0 -71248-4 0  9992
2 21252  74.1087   5.0052 0124258 265.9718 121.6517 12.24993509587921

Track SL-8 DEB in real time with AllMySat

Download on the App Store